Date String (YYYY-MM-DD hh:mm:ss) UTC,Instrument flags,absolute air pressure of the measurement (hPa),sample flow rate (lpm),inlet stack bypass flow (lpm),air temperature of the measurement (°C),ambient temperature measured by the external sensor (°C),aerosol sample conditioner tube jacket temperature (°C),OPC LED temperature (°C),internal box temperature (°C),relative humidity of the measurement (%),span deviation,mass concentration of particles derived from Lorenz-Mie calculation of OPC scattering (μg/m³),mass concentration of particles derived from Lorenz-Mie calculation of OPC scattering (μg/m³),mass concentration of particles derived from Lorenz-Mie calculation of OPC scattering (μg/m³)
DateTimeUTC,F1_M11,P_M11,Q1_M11,Q2_M11,T1_M11,T2_M11,T3_M11,T4_M11,T5_M11,U1_M11,ZSPAN_M11,X2_M11,X0_M11,X1_M11
2023-12-08 14:00:00,SystemResetWarning,0821.8,5.00,000.00,021.0,020.0,000.0,029.4,022.3,12.4,0000.0,0001.99,0008.69,0001.17
2023-12-08 14:01:00,SystemResetWarning,0821.8,5.00,000.00,021.0,020.0,000.0,029.4,022.3,12.4,0000.0,0001.96,0008.20,0001.17
2023-12-08 14:02:00,SystemResetWarning,0821.8,5.00,000.00,021.0,020.0,000.0,029.4,022.3,12.5,0000.0,0001.94,0008.50,0001.18
2023-12-08 14:03:00,SystemResetWarning,0821.8,5.00,000.00,021.0,020.0,000.0,029.4,022.3,12.4,0000.0,0002.07,0010.17,0001.20
2023-12-08 14:04:00,SystemResetWarning,0821.8,5.01,000.00,021.0,020.0,000.0,029.4,022.3,12.4,0000.0,0002.26,0011.38,0001.21
2023-12-08 14:05:00,SystemResetWarning,0821.8,5.00,000.00,021.0,020.0,000.0,029.4,022.3,12.5,0000.0,0002.50,0012.71,0001.23
2023-12-08 14:06:00,SystemResetWarning,0821.8,5.00,000.00,021.0,020.0,000.0,029.4,022.3,12.4,0000.0,0002.62,0012.93,0001.22
2023-12-08 14:07:00,SystemResetWarning,0821.8,5.00,000.00,021.0,020.0,000.0,029.4,022.3,12.4,0000.0,0002.73,0013.68,0001.22
2023-12-08 14:08:00,SystemResetWarning,0821.9,5.00,000.00,021.0,020.0,000.0,029.4,022.3,12.4,0000.0,0002.73,0013.39,0001.21
2023-12-08 14:09:00,SystemResetWarning,0821.9,5.00,000.00,021.0,020.0,000.0,029.4,022.3,12.5,0000.0,0002.72,0013.18,0001.19
2023-12-08 14:10:00,SystemResetWarning,0821.9,4.99,000.00,021.0,020.0,000.0,029.4,022.3,12.5,0000.0,0002.72,0012.88,0001.19
2023-12-08 14:11:00,SystemResetWarning,0821.9,5.00,000.00,021.0,020.0,000.0,029.4,022.3,12.5,0000.0,0002.71,0011.87,0001.18
2023-12-08 14:12:00,SystemResetWarning,0821.9,5.00,000.00,021.0,020.0,000.0,029.4,022.3,12.5,0000.0,0002.72,0011.97,0001.18
2023-12-08 14:13:00,SystemResetWarning,0821.8,4.99,000.00,021.0,020.0,000.0,029.4,022.3,12.5,0000.0,0002.66,0011.63,0001.18
2023-12-08 14:14:00,SystemResetWarning,0821.8,5.01,000.00,021.0,020.0,000.0,029.4,022.3,12.5,0000.0,0002.54,0009.85,0001.17
2023-12-08 14:15:00,SystemResetWarning,0821.9,5.01,000.00,021.0,020.1,000.0,029.4,022.3,12.5,0000.0,0002.36,0008.96,0001.14
2023-12-08 14:16:00,SystemResetWarning,0821.8,5.00,000.00,021.0,020.1,000.0,029.4,022.3,12.5,0000.0,0002.09,0007.65,0001.11
2023-12-08 14:17:00,SystemResetWarning,0821.8,4.98,000.00,021.0,020.1,000.0,029.4,022.3,12.5,0000.0,0001.92,0007.50,0001.09
2023-12-08 14:18:00,SystemResetWarning,0821.8,5.01,000.00,021.0,020.1,000.0,029.3,022.3,12.5,0000.0,0001.78,0007.08,0001.09
2023-12-08 14:19:00,SystemResetWarning,0821.8,5.02,000.00,021.0,020.1,000.0,029.3,022.3,12.5,0000.0,0001.73,0005.19,0001.09
2023-12-08 14:20:00,SystemResetWarning,0821.8,5.00,000.00,021.0,020.1,000.0,029.3,022.3,12.5,0000.0,0001.78,0005.48,0001.09
2023-12-08 14:21:00,SystemResetWarning,0821.7,4.99,000.00,021.0,020.1,000.0,029.3,022.3,12.5,0000.0,0001.78,0005.54,0001.09
2023-12-08 14:22:00,SystemResetWarning,0821.8,5.00,000.00,021.0,020.0,000.0,029.3,022.3,12.5,0000.0,0001.76,0005.50,0001.09
2023-12-08 14:23:00,SystemResetWarning,0821.8,5.00,000.00,021.0,020.0,000.0,029.3,022.3,12.5,0000.0,0001.74,0005.32,0001.09
2023-12-08 14:24:00,SystemResetWarning,0821.8,5.00,000.00,021.0,020.0,000.0,029.3,022.2,12.5,0000.0,0001.77,0005.35,0001.09
2023-12-08 14:25:00,SystemResetWarning,0821.8,5.00,000.00,021.0,020.0,000.0,029.3,022.2,12.5,0000.0,0001.74,0005.29,0001.09
2023-12-08 14:26:00,SystemResetWarning,0821.8,5.01,000.00,021.0,020.0,000.0,029.3,022.2,12.5,0000.0,0001.69,0004.88,0001.10
2023-12-08 14:27:00,SystemResetWarning,0821.8,5.00,000.00,021.0,020.0,000.0,029.3,022.2,12.5,0000.0,0001.69,0004.32,0001.11
2023-12-08 14:28:00,SystemResetWarning,0821.8,5.01,000.00,021.0,020.0,000.0,029.3,022.2,12.5,0000.0,0001.76,0004.03,0001.12
2023-12-08 14:29:00,SystemResetWarning,0821.7,5.00,000.00,021.0,020.0,000.0,029.3,022.3,12.5,0000.0,0001.79,0004.42,0001.12
2023-12-08 14:30:00,SystemResetWarning,0821.7,4.98,000.00,021.0,020.1,000.0,029.3,022.3,12.5,0000.0,0001.78,0004.55,0001.12
2023-12-08 14:31:00,SystemResetWarning,0821.7,4.99,000.00,021.0,020.1,000.0,029.3,022.3,12.5,0000.0,0001.70,0004.54,0001.12
2023-12-08 14:32:00,SystemResetWarning,0821.7,5.02,000.00,021.0,020.1,000.0,029.3,022.3,12.5,0000.0,0001.71,0004.70,0001.11
2023-12-08 14:33:00,SystemResetWarning,0821.6,5.01,000.00,021.0,020.1,000.0,029.3,022.3,12.5,0000.0,0001.72,0004.56,0001.10
2023-12-08 14:34:00,SystemResetWarning,0821.6,4.99,000.00,021.0,020.1,000.0,029.3,022.3,12.5,0000.0,0001.73,0004.63,0001.11
2023-12-08 14:35:00,SystemResetWarning,0821.6,5.00,000.00,021.0,020.1,000.0,029.3,022.3,12.5,0000.0,0001.73,0004.81,0001.11
2023-12-08 14:36:00,SystemResetWarning,0821.6,4.99,000.00,021.0,020.1,000.0,029.3,022.3,12.6,0000.0,0001.79,0006.00,0001.11
2023-12-08 14:37:00,SystemResetWarning,0821.6,5.00,000.00,021.0,020.1,000.0,029.3,022.3,12.6,0000.0,0001.80,0007.46,0001.11
2023-12-08 14:38:00,SystemResetWarning,0821.7,5.00,000.00,021.0,020.1,000.0,029.3,022.3,12.5,0000.0,0001.83,0007.80,0001.11
2023-12-08 14:39:00,SystemResetWarning,0821.7,5.00,000.00,021.0,020.1,000.0,029.3,022.3,12.6,0000.0,0001.76,0007.77,0001.10
2023-12-08 14:40:00,SystemResetWarning,0821.7,5.00,000.00,021.0,020.1,000.0,029.3,022.3,12.5,0000.0,0001.70,0007.52,0001.09
2023-12-08 14:41:00,SystemResetWarning,0821.8,5.00,000.00,021.0,020.1,000.0,029.3,022.3,12.5,0000.0,0001.82,0007.84,0001.09
2023-12-08 14:42:00,SystemResetWarning,0821.7,5.00,000.00,021.0,020.1,000.0,029.3,022.3,12.5,0000.0,0001.92,0008.29,0001.10
2023-12-08 14:43:00,SystemResetWarning,0821.7,5.01,000.00,021.0,020.1,000.0,029.3,022.3,12.5,0000.0,0001.92,0008.48,0001.11
2023-12-08 14:44:00,SystemResetWarning,0821.8,5.00,000.00,021.0,020.1,000.0,029.3,022.3,12.6,0000.0,0001.89,0008.60,0001.12
2023-12-08 14:45:00,SystemResetWarning,0821.8,5.00,000.00,021.0,020.1,000.0,029.3,022.3,12.6,0000.0,0001.90,0008.87,0001.11
2023-12-08 14:46:00,SystemResetWarning,0821.8,5.00,000.00,021.0,020.1,000.0,029.3,022.3,12.6,0000.0,0001.91,0008.87,0001.12
2023-12-08 14:47:00,SystemResetWarning,0821.8,4.99,000.00,021.0,020.1,000.0,029.3,022.3,12.7,0000.0,0001.87,0008.23,0001.11
2023-12-08 14:48:00,SystemResetWarning,0821.8,4.99,000.00,021.0,020.0,000.0,029.3,022.3,12.7,0000.0,0001.88,0008.23,0001.12
2023-12-08 14:49:00,SystemResetWarning,0821.8,5.00,000.00,021.0,020.0,000.0,029.3,022.2,12.7,0000.0,0001.90,0008.39,0001.12
2023-12-08 14:50:00,SystemResetWarning,0821.8,5.01,000.00,021.0,020.0,000.0,029.3,022.2,12.7,0000.0,0001.93,0008.90,0001.13
2023-12-08 14:51:00,SystemResetWarning,0821.8,5.01,000.00,020.9,020.0,000.0,029.3,022.2,12.6,0000.0,0001.99,0008.98,0001.15
2023-12-08 14:52:00,SystemResetWarning,0821.8,5.01,000.00,020.9,019.9,000.0,029.3,022.2,12.6,0000.0,0001.91,0008.51,0001.16
2023-12-08 14:53:00,SystemResetWarning,0821.8,5.00,000.00,020.9,019.9,000.0,029.3,022.1,12.6,0000.0,0001.87,0008.49,0001.16
2023-12-08 14:54:00,SystemResetWarning,0821.7,5.00,000.00,020.9,019.9,000.0,029.3,022.2,12.6,0000.0,0001.92,0008.64,0001.17
2023-12-08 14:55:00,SystemResetWarning,0821.8,5.00,000.00,020.9,019.9,000.0,029.3,022.2,12.6,0000.0,0001.94,0008.85,0001.17
2023-12-08 14:56:00,SystemResetWarning,0821.8,4.99,000.00,020.9,019.9,000.0,029.3,022.1,12.6,0000.0,0001.94,0009.52,0001.17
2023-12-08 14:57:00,SystemResetWarning,0821.7,5.00,000.00,020.9,019.9,000.0,029.3,022.1,12.7,0000.0,0001.92,0009.77,0001.17
2023-12-08 14:58:00,SystemResetWarning,0821.8,5.01,000.00,020.9,019.9,000.0,029.3,022.1,12.6,0000.0,0001.93,0009.79,0001.17
2023-12-08 14:59:00,SystemResetWarning,0821.7,5.01,000.00,020.9,020.0,000.0,029.3,022.1,12.6,0000.0,0001.92,0009.36,0001.18
